Regional Weather Roundup
Issued by NWS New Orleans/Baton Rouge, LA

Home | Current Version | Previous Version | Text Only | Print | Product List | Glossary On
Versions: 1 2 3 4 5 6 7 8 9 10 11 12 13 14 15 16 17 18 19 20 21 22 23 24 25 26 27 28 29 30 31 32 33 34 35 36 37 38 39 40 41 42 43 44 45 46 47 48 49 50
000
ASUS44 KLIX 181712
RWRLIX
NEW ORLEANS REGIONAL WEATHER ROUNDUP
NATIONAL WEATHER SERVICE NEW ORLEANS LA
1100 AM CST SAT NOV 18 2017

NOTE: "FAIR" INDICATES FEW OR NO CLOUDS BELOW 12,000 FEET WITH NO
      SIGNIFICANT WEATHER AND/OR OBSTRUCTIONS TO VISIBILITY.
      SKY/WX - SKY CONDITION AND SIGNIFICANT WEATHER.
      TMP - AIR TEMPERATURE.     DP    - DEWPOINT TEMPERATURE.
      RH  - RELATIVE HUMIDITY.   PRES  - PRESSURE.
      HI  - HEAT INDEX.          WCI   - WIND CHILL INDEX.

*  THESE STATIONS ARE NOT NWS OR FAA STATIONS AND ARE NOT UNDER
   NWS QUALITY CONTROL.

LAZ038-040-048-061>063-065>067-069-181800-
SOUTHEAST LOUISIANA

CITY           SKY/WX    TMP DP  RH WIND       PRES   REMARKS
N.O. INTL ARPT PTSUNNY   81  67  62 S17       29.92F
N.O. LAKEFRONT PTSUNNY   79  66  64 S23       29.92F
N.O. DOWNTOWN* PTSUNNY   78  66  66 S14G23    29.93F
RESERVE*       PTSUNNY   81  64  57 SW18G26   29.91F
SLIDELL        PTSUNNY   78  65  63 SW12G24   29.92F
BATON ROUGE    PTSUNNY   79  65  62 S16G28    29.88F
BOOTHVILLE     SUNNY     79  67  66 S16       29.96F
BELLE CHASSE   PTSUNNY   78  68  71 S22       29.93F
BOGALUSA*      NOT AVBL
GALLIANO*      CLOUDY    80  66  62 S17       29.94F
NEW ROADS*     CLOUDY    80  65  62 S14G25    29.87F
GONZALES*      PTSUNNY   79  66  64 SW12G22   29.90F
HAMMOND*       CLOUDY    77  66  69 S12       29.90F
HOUMA*         MOSUNNY   81  68  65 S12       29.93F
PORT FOURCHON* NOT AVBL

$$

MSZ070-080>082-181800-
SOUTHERN MISSISSIPPI

CITY           SKY/WX    TMP DP  RH WIND       PRES   REMARKS
MCCOMB         PTSUNNY   77  64  64 SW14G30   29.86F
GULFPORT       SUNNY     76  67  73 SW14G21   29.93F
BILOXI         SUNNY     76  67  72 SW13      29.93F
PASCAGOULA     SUNNY     78  64  61 SW13G22   29.94F
STENNIS ARPT*  PTSUNNY   77  66  69 SW12G25   29.93F

$$

COASTAL OBSERVATIONS
LAKE AND NEARSHORE STATIONS

STATION/POSITION TIME  TEMP    WIND        PRES    WAVE
                       AIR SEA DIR/SP/G            HT/PER
                 (UTC) (F)     (DEG/KT/KT) (MB)    (FT/S)

OFFSHORE STATIONS

STATION/POSITION TIME  TEMP    WIND        PRES    WAVE
                       AIR SEA DIR/SP/G            HT/PER
                 (UTC) (F)     (DEG/KT/KT) (MB)    (FT/S)
64 S DAUPHIN ISL 1650   76 78  200/ 16/ 19 1014.8    4/ 5

$$




USA.gov is the U.S. government's official web portal to all federal, state and local government web resources and services.